Notices

What's New in latest Release from April 7th, 2021:

- Updated Glossary, including Speed of Maximum Gust, and Total Hourly Precipitation

- Updated national and regional climate services offices contacts and prices information

- Addition of station inventory lists for 1981-2010, 1971-2000, and 1961-1990 Normals.

If you haven't already, please take our survey and provide feedback about our website: https://eccc.sondage-survey.ca/f/LanguageSelection.aspx?s=442ca660-fcf1-47c0-95a9-59707d6fd709

Hourly Data Report for April 07, 2019

MIRAMICHI RCS
NEW BRUNSWICK
Current Station Operator: ECCC - MSC

47°00'34.000" N
65°27'54.000" W
33.00 m
8100989
71744
ACQ

Download Data

Hourly Data (April 2019)
Hourly Data Report for April 7, 2019
TIME
LST
Temp Definition
°C
Dew Point Definition
°C
Rel Hum Definition
%
Precip. Amount Definition
mm

Wind Dir Definition
10's deg

Wind Spd Definition
km/h
Visibility Definition
km
Stn Press Definition
kPa
Hmdx Definition


Wind Chill Definition


Weather Definition


00:00 0.6 -2.8 78 0.0 25 8   101.16     LegendNANA
01:00 0.0 -3.1 80 0.0 26 10   101.18   -3 LegendNANA
02:00 -0.2 -3.3 80 0.0 25 11   101.18   -4 LegendNANA
03:00 -0.3 -3.2 81 0.0 25 9   101.16   -3 LegendNANA
04:00 -0.9 -3.3 84 0.0 24 11   101.17   -5 LegendNANA
05:00 -1.8 -3.9 86 0.0 23 8   101.21   -5 LegendNANA
06:00 -1.4 -3.6 85 0.0 26 8   101.30   -4 LegendNANA
07:00 0.3 -3.3 77 0.0 26 11   101.36     LegendNANA
08:00 2.6 -3.5 64 0.0 27 17   101.37     LegendNANA
09:00 3.5 -5.2 53 0.0 28 22   101.35     LegendNANA
10:00 4.2 -7.5 42 0.0 28 18   101.30     LegendNANA
11:00 5.1 -9.3 35 0.0 27 22   101.26     LegendNANA
12:00 5.7 -12.8 25 0.0 28 25   101.20     LegendNANA
13:00 6.1 -13.9 22 0.0 29 29   101.23     LegendNANA
14:00 6.1 -12.8 24 0.0 28 25   101.26     LegendNANA
15:00 6.0 -12.1 26 0.0 30 25   101.28     LegendNANA
16:00 5.8 -14.7 21 0.0 32 16   101.31     LegendNANA
17:00 4.6 -13.7 25 0.0 33 16   101.36     LegendNANA
18:00 2.7 -14.8 26 0.0 34 17   101.47     LegendNANA
19:00 0.6 -14.9 30 0.0 34 14   101.63     LegendNANA
20:00 -1.1 -15.6 32 0.0 36 11   101.80   -5 LegendNANA
21:00 -2.2 -16.2 33 0.0 36 7   101.91   -5 LegendNANA
22:00 -2.6 -17.6 31 0.0 34 7   101.99   -5 LegendNANA
23:00 -3.6 -16.9 35 0.0 34 4   101.99   -5 LegendNANA

Notes on Data Quality.

Legend

  • E = Estimated
  • M = Missing
  • NA = Not Available*
  • [empty] = Indicates an unobserved value
Date modified: